Weather History for Port Angeles, WA

Change the Weather History Date:

Saturday, October 12, 2013

  Actual Average Record
Temperature  
Mean Temperature 50 °F -  
Max Temperature 55 °F 59 °F 69 °F (1991)
Min Temperature 44 °F 43 °F 32 °F (2002)
Degree Days  
Heating Degree Days 16    
Moisture  
Dew Point 46 °F    
Average Humidity 91    
Maximum Humidity 96    
Minimum Humidity 72    
Precipitation  
Precipitation 0.19 in - - ()
Sea Level Pressure  
Sea Level Pressure 30.13 in    
Wind  
Wind Speed 3 mph (South)    
Max Wind Speed 9 mph    
Max Gust Speed -    
Visibility 8 miles    
Events Rain    
Averages and records for this station are not official NWS values.
T = Trace of Precipitation, MM = Missing Value Source: NWS Daily Summary

Daily Weather History Graph

Daily Weather History Graph

Search for Another Location

Airport:

Trip Planner

Search our weather history database for the weather conditions in past years. The results will help you decide how hot, cold, wet, or windy it might be!

Date:

Astronomy

Oct. 12, 2013 Rise Set
Actual Time 7:29 AM PDT 6:30 PM PDT
Civil Twilight 6:58 AM PDT 7:01 PM PDT
Nautical Twilight 6:22 AM PDT 7:37 PM PDT
Astronomical Twilight 5:46 AM PDT 8:13 PM PDT
Moon 3:09 PM PDT (10/12) 12:11 AM PDT (10/12)
Length of Visible Light 12h 03m
Length of Day
11h 00m
First Quarter, 60% of the Moon is Illuminated
Oct 12
First Quarter
Oct 18
Full
Oct 26
Last Quarter
Nov 3
New
Nov 9
First Quarter

Hourly Weather History & Observations

Time (PDT) Temp. Windchill Dew Point Humidity Pressure Visibility Wind Dir Wind Speed Gust Speed Precip Events Conditions
12:51 AM 48.2 °F - 46.4 °F 93% 30.09 in 10.0 mi West 5.8 mph - 0.00 in Rain Light Rain
12:53 AM 48.0 °F - 46.0 °F 93% 30.09 in 10.0 mi WNW 4.6 mph - 0.00 in Rain Light Rain
1:11 AM 48.0 °F - 46.9 °F 96% 30.09 in 10.0 mi West 3.5 mph - 0.01 in Rain Light Rain
1:20 AM 48.0 °F - 46.9 °F 96% 30.09 in 10.0 mi West 4.6 mph - 0.01 in Rain Light Rain
1:53 AM 48.9 °F - 46.9 °F 93% 30.10 in 6.0 mi Calm Calm - 0.02 in Rain Light Rain
2:11 AM 48.9 °F - 46.9 °F 93% 30.09 in 10.0 mi Calm Calm - 0.01 in Rain Light Rain
2:25 AM 48.0 °F - 46.9 °F 96% 30.09 in 6.0 mi Calm Calm - 0.01 in Rain Light Rain
2:53 AM 48.9 °F - 46.9 °F 93% 30.10 in 10.0 mi Calm Calm - 0.02 in Rain Light Rain
3:09 AM 48.9 °F - 46.9 °F 93% 30.09 in 10.0 mi Calm Calm - 0.00 in Rain Light Rain
3:21 AM 48.9 °F - 46.9 °F 93% 30.09 in 10.0 mi Calm Calm - 0.00 in Rain Light Rain
3:53 AM 48.9 °F - 46.9 °F 93% 30.09 in 7.0 mi SW 3.5 mph - 0.02 in Rain Light Rain
4:15 AM 48.9 °F - 46.9 °F 93% 30.09 in 3.0 mi Calm Calm - 0.02 in Rain Light Rain
4:53 AM 48.9 °F - 46.9 °F 93% 30.10 in 4.0 mi Calm Calm - 0.03 in Rain Light Rain
5:23 AM 48.9 °F - 46.9 °F 93% 30.09 in 5.0 mi Calm Calm - 0.02 in Rain Light Rain
5:53 AM 48.0 °F - 46.9 °F 96% 30.10 in 9.0 mi Calm Calm - 0.03 in Rain Light Rain
6:29 AM 48.0 °F - 46.9 °F 96% 30.10 in 10.0 mi Calm Calm - 0.00 in   Overcast
6:53 AM 48.0 °F - 46.0 °F 93% 30.11 in 10.0 mi Calm Calm - 0.00 in   Overcast
7:07 AM 48.0 °F - 46.9 °F 96% 30.10 in 10.0 mi Calm Calm - 0.00 in Rain Light Rain
7:15 AM 48.0 °F - 46.9 °F 96% 30.11 in 9.0 mi South 3.5 mph - 0.00 in Rain Light Rain
7:53 AM 48.0 °F - 46.9 °F 96% 30.12 in 3.0 mi SE 4.6 mph - 0.02 in Rain Light Rain
8:00 AM 48.0 °F - 46.9 °F 96% 30.11 in 2.5 mi ESE 4.6 mph - 0.00 in Rain Light Rain
8:10 AM 48.0 °F - 46.9 °F 96% 30.11 in 2.0 mi SE 5.8 mph - 0.01 in Rain Light Rain
8:19 AM 48.0 °F - 46.9 °F 96% 30.12 in 1.8 mi SE 4.6 mph - 0.01 in Rain Light Rain
8:27 AM 48.0 °F - 46.9 °F 96% 30.12 in 2.0 mi SE 4.6 mph - 0.02 in Rain Light Rain
8:53 AM 48.0 °F - 46.9 °F 96% 30.13 in 2.0 mi South 3.5 mph - 0.03 in Rain Light Rain
9:04 AM 48.9 °F - 46.9 °F 93% 30.12 in 6.0 mi Calm Calm - 0.02 in Rain Light Rain
9:53 AM 48.9 °F - 46.9 °F 93% 30.14 in 10.0 mi East 3.5 mph - 0.02 in   Overcast
10:28 AM 48.9 °F - 46.9 °F 93% 30.14 in 10.0 mi East 3.5 mph - N/A   Overcast
10:35 AM 50.0 °F - 46.9 °F 89% 30.14 in 7.0 mi East 3.5 mph - N/A   Overcast
10:42 AM 50.0 °F - 46.9 °F 89% 30.14 in 5.0 mi SE 4.6 mph - N/A   Overcast
10:49 AM 48.2 °F - 46.4 °F 93% 30.14 in 6.0 mi SE 5.8 mph - N/A   Overcast
10:53 AM 48.9 °F - 46.9 °F 93% 30.15 in 5.0 mi SE 5.8 mph - N/A   Overcast
11:02 AM 48.9 °F - 46.9 °F 93% 30.14 in 5.0 mi SE 5.8 mph - N/A   Overcast
11:09 AM 50.0 °F - 46.9 °F 89% 30.14 in 6.0 mi SE 4.6 mph - N/A   Overcast
11:33 AM 48.9 °F - 46.9 °F 93% 30.15 in 4.0 mi South 4.6 mph - N/A   Overcast
11:53 AM 50.0 °F - 46.9 °F 89% 30.15 in 10.0 mi SSE 5.8 mph - N/A   Overcast
12:53 PM 51.1 °F - 48.0 °F 89% 30.15 in 10.0 mi ESE 5.8 mph - N/A   Overcast
1:53 PM 52.0 °F - 46.9 °F 83% 30.15 in 10.0 mi SE 6.9 mph - N/A   Mostly Cloudy
2:12 PM 52.0 °F - 46.9 °F 83% 30.14 in 10.0 mi SE 4.6 mph - N/A   Partly Cloudy
2:53 PM 54.0 °F - 46.9 °F 77% 30.15 in 10.0 mi Variable 3.5 mph - N/A   Partly Cloudy
3:53 PM 54.0 °F - 46.0 °F 75% 30.16 in 10.0 mi Calm Calm - N/A   Partly Cloudy
4:53 PM 55.0 °F - 46.0 °F 72% 30.17 in 10.0 mi SW 3.5 mph - N/A   Clear
5:53 PM 54.0 °F - 46.0 °F 75% 30.17 in 10.0 mi Calm Calm - N/A   Clear
6:53 PM 48.0 °F - 46.0 °F 93% 30.19 in 8.0 mi SW 3.5 mph - N/A   Clear
7:53 PM 46.0 °F 43.9 °F 43.0 °F 89% 30.20 in 10.0 mi West 4.6 mph - N/A   Clear
8:53 PM 45.0 °F 41.2 °F 42.1 °F 90% 30.20 in 10.0 mi West 6.9 mph - N/A   Clear
9:53 PM 44.1 °F 41.5 °F 41.0 °F 89% 30.22 in 10.0 mi WSW 4.6 mph - N/A   Clear
10:53 PM 44.1 °F 40.1 °F 41.0 °F 89% 30.23 in 10.0 mi WSW 6.9 mph - N/A   Clear
11:53 PM 44.1 °F 39.0 °F 39.9 °F 85% 30.24 in 10.0 mi WSW 9.2 mph - N/A   Clear